Regional Weather Roundup
Issued by NWS

Home | Current Version | Previous Version | Graphics & Text | Print | Product List | Glossary On
Versions: 1 2 3 4 5 6 7 8 9 10 11 12 13 14 15 16 17 18 19 20 21 22 23 24 25 26 27 28 29 30 31 32 33 34 35 36 37 38 39 40 41 42 43 44 45 46 47 48 49 50
000
ASUS43 KDTX 222010
RWRMI
MICHIGAN HOURLY REGIONAL WEATHER ROUNDUP
NATIONAL WEATHER SERVICE DETROIT/PONTIAC MI
400 PM EDT FRI MAY 22 2015

NOTE: "FAIR" INDICATES FEW OR NO CLOUDS BELOW 12,000 FEET WITH NO
SIGNIFICANT WEATHER AND/OR OBSTRUCTION TO VISIBILITY.

MIZ047>049-052>055-059>063-066>070-074>076-081>083-222100-
SOUTHEAST LOWER MICHIGAN

CITY           SKY/WX    TMP DP  RH WIND       PRES   REMARKS
ADRIAN         SUNNY     68  29  23 N15G21    30.22S
ALMA           SUNNY     65  27  24 NW10G20   30.22S
ANN ARBOR      SUNNY     66  32  28 NW10      30.22R
BAD AXE        SUNNY     54  31  41 NE12      30.24R
CARO           SUNNY     62  30  30 NW14G20   30.21S
DETROIT CITY   SUNNY     64  30  27 NW9       30.21R
DETROIT        MOSUNNY   67  34  29 NW12G20   30.22R
FLINT          SUNNY     66  29  24 NW14      30.21S
GROSSE ILE     SUNNY     66  25  20 NW8       30.20S
HILLSDALE      SUNNY     67  30  25 NW14      30.22S
HOWELL         SUNNY     64  28  26 W8        30.23R

CITY           SKY/WX    TMP DP  RH WIND       PRES   REMARKS
JACKSON        SUNNY     65  32  29 W12G24    30.22S
LAMBERTVILLE   SUNNY     68  30  24 NW7       30.21S
LANSING        SUNNY     66  30  26 NW9       30.23S
LAPEER         FAIR      62  25  24 N5        30.22S
MASON          SUNNY     62  31  31 W3G16     30.23S
MONROE         SUNNY     66  30  26 NW13G20   30.20S
MT. CLEMENS    MOSUNNY   62  31  30 NW10      30.20R
PONTIAC        MOSUNNY   63  30  28 N12G18    30.22R
PORT HOPE        N/A     46  29  51 NE8       30.25R
PORT HURON     SUNNY     52  32  46 NE9       30.25R
TRI CITIES     SUNNY     65  26  23 W12G21    30.22R
MIDLAND        FAIR      64  23  21 NW8G23    30.21R
TROY           SUNNY     64  29  26 NW9G17    30.24R
SAGINAW HB     SUNNY     64  23  20 NW14G24   30.21R
$$
MIZ043>046-050>051-056>058-064>065-071>073-077>080-222100-
SOUTHWEST LOWER MICHIGAN

CITY           SKY/WX    TMP DP  RH WIND       PRES   REMARKS
BATTLE CREEK   SUNNY     67  32  27 NW10G20   30.23S
BENTON HARBOR  SUNNY     58  33  39 VRB5      30.27R
BIG RAPIDS     SUNNY     63  15  15 NW13G21   30.23R
COLDWATER      SUNNY     66  31  27 W10       30.22S
FREMONT        FAIR      64  21  19 NW16      30.25R
HOLLAND        SUNNY     62  31  31 W12       30.28R
GRAND RAPIDS   MOSUNNY   67  31  26 W7        30.23S
IONIA          FAIR      66  32  28 NW12      30.22S
KALAMAZOO      SUNNY     69  34  27 NW9G18    30.23S
LUDINGTON      SUNNY     61  20  20 N8        30.29R
MARSHALL       SUNNY     67  31  26 W12G20    30.22S
MOUNT PLEASANT SUNNY     65  25  21 NW10      30.21S
MUSKEGON       SUNNY     60  24  25 W10G20    30.28R
SOUTH HAVEN    SUNNY     59  28  31 NW9       30.27S
$$
MIZ016>042-222100-
NORTHERN LOWER MICHIGAN

CITY           SKY/WX    TMP DP  RH WIND       PRES   REMARKS
ALPENA         SUNNY     57  25  29 NW16      30.23R
BEAVER ISLAND  SUNNY     55  23  29 W9        30.27R
BELLAIRE       SUNNY     56  21  25 W6        30.27S
CADILLAC       SUNNY     60  25  26 N10       30.23R
CHARLEVOIX     SUNNY     53  27  36 NW5       30.30S
FRANKFORT      SUNNY     59  11  15 NE6       30.28S
GAYLORD        SUNNY     53  16  23 NW12G21   30.24S
GRAYLING       SUNNY     57  18  21 NW12G28   30.25R
HARBOR SPRINGS SUNNY     50  29  44 W7G17     30.27R
HOUGHTON LAKE  SUNNY     59  18  20 NW17G23   30.24R
MANISTEE       SUNNY     55  21  26 NW8       30.30R
OSCODA         SUNNY     49  31  49 E12       30.23S
PELLSTON       SUNNY     56  21  25 NW13G21   30.26R
ROGERS CITY    SUNNY     50  25  37 NW15G23   30.25S
TRAVERSE CITY  SUNNY     54  27  35 NE7       30.28R
$$
MIZ007>008-015-222100-
EASTERN UPPER MICHIGAN

CITY           SKY/WX    TMP DP  RH WIND       PRES   REMARKS
KINROSS        SUNNY     48  18  29 NW18G26   30.24S
MACKINAC ISLAN SUNNY     54  24  30 NW9G18    30.24R
NEWBERRY       SUNNY     51  22  32 NW12G22   30.26R
S. S. MARIE    SUNNY     46  22  38 NW16      30.24S
MUNISING         N/A     46  29  51 NE13      30.27S
$$
MIZ004>006-011>014-085-222100-
CENTRAL UPPER MICHIGAN

CITY           SKY/WX    TMP DP  RH WIND       PRES   REMARKS
MANISTIQUE     SUNNY     50  28  43 S13       30.26R
ESCANABA       SUNNY     54  34  47 S12       30.25R
MENOMINEE      SUNNY     57  28  33 SE17      30.24R
SAWYER-GWINN   SUNNY     54  23  30 NE12      30.24R
$$
MIZ001>003-009>011-084-222100-
WESTERN UPPER MICHIGAN

CITY           SKY/WX    TMP DP  RH WIND       PRES   REMARKS
IRON MOUNTAIN  SUNNY     67  19  16 NW13G23   30.19S
HOUGHTON       SUNNY     55  30  38 E9        30.23S
COPPER HARBOR    N/A     53  26  35 VRB7      30.24S
IRONWOOD       SUNNY     63  27  25 SW7       30.20F
$$

ABBREVIATIONS USED IN REMARKS
   TC - TEMPERATURE IN CELSIUS
  WCI - WIND CHILL INDEX
   HX - HEAT INDEX
  VSB - VISIBILITY




USA.gov is the U.S. government's official web portal to all federal, state and local government web resources and services.